BEIDOU 17 (C31)

Last updated on Mon Feb 13 2023 00:03:21 GMT+0000 (Coordinated Universal Time)

1 40549U 15019A 23043.65389641 -.00000148 00000+0 00000+0 0 9994 2 40549 51.4650 309.9558 0035889 193.5502 325.5104 1.00301473 28843

Satellite not in orbit

BEIDOU 17 (C31)